This demonstration page uses our WeatherBlox Daily Observations layout. Learn more.

Left ArrowRight Arrow

34.74481, -87.66753

Hourly Observations for September 1, 2019

Temp ( °F °C ) Dew Point ( °F °C ) Humidity (%) Winds ( mph kmh ) Pressure ( in mb ) Visibility ( mi km ) Precip ( " mm )
12:53 am 00:53 Clear 69 20.6 65 18.3 87 87 Calm 30.07 1018 10 16 0.00 0.00
1:53 am 01:53 Partly Cloudy 69 20.6 65 18.3 87 87 Calm 30.07 1018 10 16 0.00 0.00
2:53 am 02:53 Clear 68 20 65 18.3 90 90 Calm 30.07 1018 10 16 0.00 0.00
3:53 am 03:53 Clear 68 20 64 17.8 87 87 Calm 30.07 1018 10 16 0.00 0.00
4:53 am 04:53 Clear 68 20 64 17.8 87 87 Calm 30.08 1019 10 16 0.00 0.00
5:53 am 05:53 Clear 67 19.4 64 17.8 91 91 Calm 30.09 1019 10 16 0.00 0.00
6:53 am 06:53 Sunny 68 20 65 18.3 90 90 Calm 30.12 1020 10 16 0.00 0.00
7:53 am 07:53 Sunny 73 22.8 67 19.4 81 81 Calm 30.14 1021 10 16 0.00 0.00
8:53 am 08:53 Sunny 79 26.1 70 21.1 74 74 SSE 5 7 30.14 1021 10 16 0.00 0.00
9:53 am 09:53 Sunny 83 28.3 70 21.1 65 65 SE 7 11 30.14 1021 10 16 0.00 0.00
10:53 am 10:53 Sunny 86 30 70 21.1 59 59 ESE 6 9 30.13 1020 10 16 0.00 0.00
11:53 am 11:53 Sunny 88 31.1 69 20.6 54 54 E 6 9 30.12 1020 10 16 0.00 0.00
12:53 pm 12:53 Partly Cloudy 88 31.1 68 20 52 52 Calm 30.10 1019 10 16 0.00 0.00
2:53 pm 14:53 Sunny 91 32.8 67 19.4 45 45 ENE 7 11 30.05 1018 10 16 0.00 0.00
3:53 pm 15:53 Sunny 91 32.8 67 19.4 45 45 Calm 30.03 1017 10 16 0.00 0.00
4:53 pm 16:53 Sunny 93 33.9 64 17.8 38 38 NNE 3 6 30.02 1017 10 16 0.00 0.00
5:53 pm 17:53 Sunny 92 33.3 67 19.4 44 44 Calm 30.02 1017 10 16 0.00 0.00
6:53 pm 18:53 Sunny 87 30.6 69 20.6 55 55 Calm 30.02 1017 10 16 0.00 0.00
7:53 pm 19:53 Clear 81 27.2 66 18.9 61 61 Calm 30.02 1017 10 16 0.00 0.00
9:53 pm 21:53 Clear 74 23.3 69 20.6 85 85 Calm 30.06 1018 10 16 0.00 0.00
10:53 pm 22:53 Clear 75 23.9 69 20.6 82 82 Calm 30.06 1018 10 16 0.00 0.00
11:53 pm 23:53 Mostly Cloudy 73 22.8 69 20.6 87 87 SSE 3 6 30.05 1018 10 16 0.00 0.00

Powered by AerisWeather